Weather History for Oklahoma City Wiley Post, OK

Change the Weather History Date:

Wednesday, July 3, 2013

  Actual Average Record
Temperature  
Mean Temperature 74 °F -  
Max Temperature 87 °F 91 °F 104 °F (2011)
Min Temperature 62 °F 70 °F 61 °F (1967)
Cooling Degree Days 9    
Growing Degree Days 24 (Base 50)    
Moisture  
Dew Point 49 °F    
Average Humidity 39    
Maximum Humidity 70    
Minimum Humidity 27    
Precipitation  
Precipitation 0.00 in - - ()
Sea Level Pressure  
Sea Level Pressure 30.01 in    
Wind  
Wind Speed 5 mph (SE)    
Max Wind Speed 12 mph    
Max Gust Speed -    
Visibility 8 miles    
Events      
Averages and records for this station are not official NWS values.
T = Trace of Precipitation, MM = Missing Value Source: NWS Daily Summary

Daily Weather History Graph

Daily Weather History Graph

Search for Another Location

Airport:

Trip Planner

Search our weather history database for the weather conditions in past years. The results will help you decide how hot, cold, wet, or windy it might be!

Date:

Astronomy

Jul. 03, 2013 Rise Set
Actual Time 6:19 AM CDT 8:49 PM CDT
Civil Twilight 5:50 AM CDT 9:19 PM CDT
Nautical Twilight 5:13 AM CDT 9:56 PM CDT
Astronomical Twilight 4:32 AM CDT 10:36 PM CDT
Moon 2:54 AM CDT (7/3) 5:04 PM CDT (7/3)
Length of Visible Light 15h 29m
Length of Day
14h 29m
Waning Crescent, 18% of the Moon is Illuminated
Jul 3
Waning Crescent
Jul 8
New
Jul 15
First Quarter
Jul 22
Full
Jul 29
Last Quarter

Hourly Weather History & Observations

Time (CDT) Temp. Dew Point Humidity Pressure Visibility Wind Dir Wind Speed Gust Speed Precip Events Conditions
12:53 AM 71.1 °F 48.9 °F 45% 30.06 in 10.0 mi ESE 5.8 mph - N/A   Clear
1:53 AM 69.1 °F 48.9 °F 49% 30.05 in 9.0 mi East 5.8 mph - N/A   Clear
2:53 AM 64.9 °F 48.9 °F 56% 30.05 in 9.0 mi Calm Calm - N/A   Clear
3:53 AM 66.0 °F 50.0 °F 56% 30.04 in 9.0 mi Calm Calm - N/A   Clear
4:53 AM 66.0 °F 50.0 °F 56% 30.04 in 9.0 mi Calm Calm - N/A   Clear
5:53 AM 62.1 °F 50.0 °F 65% 30.04 in 9.0 mi Calm Calm - N/A   Clear
6:53 AM 62.1 °F 52.0 °F 70% 30.05 in 7.0 mi Calm Calm - N/A   Clear
7:53 AM 71.1 °F 52.0 °F 51% 30.06 in 8.0 mi SSE 6.9 mph - N/A   Clear
8:53 AM 75.0 °F 48.9 °F 40% 30.07 in 9.0 mi South 5.8 mph - N/A   Clear
9:53 AM 78.1 °F 48.9 °F 36% 30.06 in 8.0 mi SSE 8.1 mph - N/A   Clear
10:53 AM 81.0 °F 50.0 °F 34% 30.06 in 8.0 mi SE 5.8 mph - N/A   Clear
11:53 AM 82.9 °F 51.1 °F 33% 30.04 in 8.0 mi Variable 6.9 mph - N/A   Clear
12:53 PM 82.9 °F 50.0 °F 32% 30.03 in 7.0 mi Variable 4.6 mph - N/A   Clear
1:44 PM 84.2 °F 48.2 °F 29% 30.06 in 7.0 mi East 4.6 mph - N/A   Partly Cloudy
1:53 PM 84.9 °F 48.0 °F 28% 30.01 in 7.0 mi SSW 3.5 mph - N/A   Partly Cloudy
2:53 PM 86.0 °F 48.9 °F 28% 30.00 in 8.0 mi Variable 6.9 mph - N/A   Clear
3:53 PM 84.9 °F 46.9 °F 27% 29.98 in 7.0 mi ENE 4.6 mph - N/A   Partly Cloudy
4:53 PM 86.0 °F 48.0 °F 27% 29.96 in 7.0 mi ESE 8.1 mph - N/A   Partly Cloudy
5:53 PM 84.9 °F 48.9 °F 29% 29.95 in 8.0 mi SE 10.4 mph - N/A   Clear
6:53 PM 84.0 °F 48.0 °F 28% 29.94 in 8.0 mi SE 9.2 mph - N/A   Clear
7:53 PM 82.9 °F 46.0 °F 27% 29.94 in 8.0 mi ESE 11.5 mph - N/A   Clear
8:53 PM 81.0 °F 46.9 °F 30% 29.94 in 8.0 mi SE 8.1 mph - N/A   Clear
9:53 PM 79.0 °F 50.0 °F 36% 29.95 in 9.0 mi SE 10.4 mph - N/A   Clear
10:53 PM 78.1 °F 48.9 °F 36% 29.97 in 6.0 mi SE 10.4 mph - N/A   Haze
11:53 PM 75.9 °F 48.9 °F 38% 29.96 in 9.0 mi SE 10.4 mph - N/A   Clear